JEC9736 SKBO-SKAR

Flight info

Callsign JEC9736
Flight time N/A
Altitude 20000
Route ISNOX2S ISNOX ISNOX1J
Aircraft A20N/M-SDE2E3FGHIRWXY/LB1

Departure

Time 2026-05-08 01:47
Airport El Dorado International Airport (SKBO)

Arrival

Time N/A
Airport El Eden Airport (SKAR)
Time Latitude Longitude Altitude Speed Heading
2026-05-08 01:25 4.70106 -74.14440 8366 ft 0 kts 127°
2026-05-08 01:35 4.70110 -74.14445 8366 ft 4 kts 127°
2026-05-08 01:36 4.70126 -74.14467 8366 ft 4 kts 127°
2026-05-08 01:36 4.70139 -74.14484 8366 ft 4 kts 121°
2026-05-08 01:36 4.70147 -74.14507 8366 ft 4 kts 71°
2026-05-08 01:36 4.70133 -74.14524 8366 ft 4 kts 41°
2026-05-08 01:37 4.70125 -74.14531 8366 ft 1 kts 36°
2026-05-08 01:38 4.70127 -74.14529 8366 ft 2 kts 36°
2026-05-08 01:39 4.70147 -74.14515 8366 ft 5 kts 36°
2026-05-08 01:39 4.70183 -74.14488 8366 ft 8 kts 36°
2026-05-08 01:39 4.70232 -74.14450 8366 ft 10 kts 38°
2026-05-08 01:39 4.70293 -74.14403 8367 ft 12 kts 37°
2026-05-08 01:40 4.70365 -74.14348 8367 ft 14 kts 37°
2026-05-08 01:40 4.70375 -74.14271 8367 ft 12 kts 122°
2026-05-08 01:40 4.70322 -74.14193 8367 ft 15 kts 127°
2026-05-08 01:40 4.70254 -74.14103 8367 ft 18 kts 127°
2026-05-08 01:41 4.70176 -74.13999 8366 ft 20 kts 127°
2026-05-08 01:41 4.70090 -74.13885 8367 ft 21 kts 127°
2026-05-08 01:41 4.69997 -74.13762 8367 ft 23 kts 127°
2026-05-08 01:41 4.69899 -74.13632 8368 ft 24 kts 127°
2026-05-08 01:42 4.69794 -74.13494 8368 ft 25 kts 127°
2026-05-08 01:42 4.69685 -74.13348 8368 ft 27 kts 127°
2026-05-08 01:42 4.69569 -74.13197 8368 ft 28 kts 127°
2026-05-08 01:42 4.69450 -74.13039 8368 ft 29 kts 127°
2026-05-08 01:43 4.69346 -74.12903 8368 ft 23 kts 127°
2026-05-08 01:43 4.69245 -74.12769 8369 ft 24 kts 127°
2026-05-08 01:43 4.69154 -74.12648 8369 ft 6 kts 126°
2026-05-08 01:43 4.69137 -74.12608 8369 ft 9 kts 104°
2026-05-08 01:44 4.69152 -74.12538 8369 ft 12 kts 49°
2026-05-08 01:44 4.69177 -74.12524 8368 ft 0 kts 15°
2026-05-08 01:45 4.69192 -74.12520 8368 ft 4 kts 15°
2026-05-08 01:45 4.69228 -74.12510 8369 ft 7 kts 15°
2026-05-08 01:45 4.69274 -74.12501 8369 ft 8 kts 354°
2026-05-08 01:45 4.69313 -74.12540 8368 ft 9 kts 307°
2026-05-08 01:46 4.69364 -74.12607 8367 ft 21 kts 308°
2026-05-08 01:46 4.69552 -74.12854 8366 ft 75 kts 308°
2026-05-08 01:46 4.69982 -74.13418 8368 ft 127 kts 307°
2026-05-08 01:46 4.70607 -74.14237 8368 ft 167 kts 307°
2026-05-08 01:47 4.71328 -74.15191 8869 ft 165 kts 307°
2026-05-08 01:47 4.72008 -74.16093 9497 ft 167 kts 308°
2026-05-08 01:47 4.72741 -74.17068 9808 ft 182 kts 307°
2026-05-08 01:48 4.74374 -74.19298 10276 ft 222 kts 307°
2026-05-08 01:48 4.75280 -74.20639 10490 ft 242 kts 298°
2026-05-08 01:48 4.75714 -74.22307 10877 ft 258 kts 270°
2026-05-08 01:48 4.75525 -74.24189 11150 ft 287 kts 259°
2026-05-08 01:49 4.75047 -74.26235 11409 ft 316 kts 254°
2026-05-08 01:49 4.74456 -74.28462 11570 ft 345 kts 256°
2026-05-08 01:49 4.73877 -74.30888 11806 ft 369 kts 256°
2026-05-08 01:49 4.73312 -74.33412 12592 ft 372 kts 258°
2026-05-08 01:50 4.72791 -74.35957 13514 ft 373 kts 258°
2026-05-08 01:50 4.72275 -74.38516 14258 ft 379 kts 258°
2026-05-08 01:50 4.71724 -74.41157 14911 ft 382 kts 255°
2026-05-08 01:50 4.70717 -74.43590 15818 ft 378 kts 237°
2026-05-08 01:51 4.69007 -74.45598 16455 ft 383 kts 219°
2026-05-08 01:51 4.66824 -74.47202 16798 ft 397 kts 214°
2026-05-08 01:51 4.64595 -74.48854 17466 ft 399 kts 216°
2026-05-08 01:51 4.62392 -74.50545 18252 ft 399 kts 217°
2026-05-08 01:52 4.60200 -74.52242 18957 ft 399 kts 216°
2026-05-08 01:52 4.57971 -74.53939 19463 ft 405 kts 216°
2026-05-08 01:52 4.55719 -74.55646 19968 ft 406 kts 216°
2026-05-08 01:52 4.53482 -74.57360 20122 ft 405 kts 217°
2026-05-08 01:53 4.51249 -74.59086 20157 ft 405 kts 217°
2026-05-08 01:53 4.49016 -74.60810 20152 ft 405 kts 217°
2026-05-08 01:53 4.46781 -74.62528 20142 ft 405 kts 217°
2026-05-08 01:53 4.44545 -74.64242 20135 ft 405 kts 217°
2026-05-08 01:54 4.42308 -74.65955 20131 ft 405 kts 217°
2026-05-08 01:54 4.40227 -74.67857 20124 ft 406 kts 227°
2026-05-08 01:54 4.38486 -74.70083 20116 ft 406 kts 236°
2026-05-08 01:54 4.37110 -74.72557 20113 ft 407 kts 243°
2026-05-08 01:55 4.35822 -74.75082 20099 ft 407 kts 242°
2026-05-08 01:55 4.34527 -74.77603 20091 ft 407 kts 242°
2026-05-08 01:55 4.33230 -74.80119 20087 ft 407 kts 242°
2026-05-08 01:55 4.32068 -74.82700 20075 ft 407 kts 252°
2026-05-08 01:56 4.31570 -74.85482 20065 ft 408 kts 268°
2026-05-08 01:56 4.31828 -74.88309 20058 ft 408 kts 283°
2026-05-08 01:56 4.32464 -74.91071 20046 ft 407 kts 283°
2026-05-08 01:56 4.33107 -74.93837 20038 ft 407 kts 283°
2026-05-08 01:57 4.33748 -74.96605 20030 ft 408 kts 283°
2026-05-08 01:57 4.34384 -74.99370 20023 ft 408 kts 283°
2026-05-08 01:57 4.35020 -75.02140 20011 ft 408 kts 283°
2026-05-08 01:57 4.35655 -75.04909 20000 ft 408 kts 283°
2026-05-08 01:58 4.36291 -75.07683 19992 ft 408 kts 283°
2026-05-08 01:58 4.36928 -75.10455 19993 ft 408 kts 283°
2026-05-08 01:58 4.37564 -75.13229 19992 ft 408 kts 283°
2026-05-08 01:58 4.38200 -75.15999 19993 ft 408 kts 283°
2026-05-08 01:59 4.38835 -75.18769 19992 ft 408 kts 283°
2026-05-08 01:59 4.39470 -75.21540 19840 ft 408 kts 283°
2026-05-08 01:59 4.40104 -75.24306 19627 ft 407 kts 283°
2026-05-08 01:59 4.40736 -75.27062 19417 ft 405 kts 283°
2026-05-08 02:00 4.41364 -75.29807 19198 ft 404 kts 283°
2026-05-08 02:00 4.41988 -75.32532 18659 ft 399 kts 283°
2026-05-08 02:00 4.42603 -75.35215 18066 ft 392 kts 283°
2026-05-08 02:00 4.43209 -75.37865 17503 ft 389 kts 283°
2026-05-08 02:01 4.43811 -75.40497 16953 ft 386 kts 283°
2026-05-08 02:01 4.44411 -75.43121 16286 ft 384 kts 283°
2026-05-08 02:01 4.45006 -75.45720 15538 ft 383 kts 283°
2026-05-08 02:01 4.45594 -75.48291 15232 ft 372 kts 283°
2026-05-08 02:02 4.46161 -75.50774 15078 ft 358 kts 283°
2026-05-08 02:02 4.46702 -75.53138 14897 ft 339 kts 283°
2026-05-08 02:02 4.47009 -75.55414 14670 ft 324 kts 271°
2026-05-08 02:02 4.46822 -75.57687 14448 ft 331 kts 258°
2026-05-08 02:03 4.46291 -75.59956 14208 ft 329 kts 256°
2026-05-08 02:03 4.45772 -75.62173 13729 ft 325 kts 256°
2026-05-08 02:03 4.45271 -75.64350 13293 ft 315 kts 256°
2026-05-08 02:03 4.44775 -75.66510 12861 ft 321 kts 256°
2026-05-08 02:04 4.44277 -75.68680 12431 ft 317 kts 256°
2026-05-08 02:04 4.43794 -75.70783 12120 ft 311 kts 256°
2026-05-08 02:04 4.43305 -75.72912 12004 ft 305 kts 256°
2026-05-08 02:04 4.42842 -75.74922 11866 ft 287 kts 256°
2026-05-08 02:05 4.42406 -75.76812 11731 ft 269 kts 256°
2026-05-08 02:05 4.41999 -75.78575 11580 ft 251 kts 256°
2026-05-08 02:05 4.41620 -75.80218 11446 ft 234 kts 256°
2026-05-08 02:05 4.41263 -75.81765 11225 ft 225 kts 256°
2026-05-08 02:06 4.41030 -75.82772 11036 ft 223 kts 257°
2026-05-08 02:06 4.40681 -75.84284 10770 ft 222 kts 257°
2026-05-08 02:06 4.40380 -75.85795 10473 ft 221 kts 269°
2026-05-08 02:06 4.40732 -75.87265 10171 ft 218 kts 303°
2026-05-08 02:07 4.41587 -75.88516 9892 ft 217 kts 306°
2026-05-08 02:07 4.42447 -75.89753 9599 ft 216 kts 306°
2026-05-08 02:07 4.43299 -75.90989 9333 ft 215 kts 306°
2026-05-08 02:07 4.44373 -75.91990 9039 ft 211 kts 336°
2026-05-08 02:08 4.45773 -75.92254 9047 ft 211 kts
2026-05-08 02:08 4.47151 -75.91772 8959 ft 211 kts 38°
2026-05-08 02:08 4.48057 -75.90664 8744 ft 207 kts 65°
2026-05-08 02:08 4.48667 -75.89354 8429 ft 208 kts 65°
2026-05-08 02:09 4.49283 -75.88043 8046 ft 208 kts 65°
2026-05-08 02:09 4.49906 -75.86736 7661 ft 208 kts 64°
2026-05-08 02:09 4.50421 -75.85391 7277 ft 207 kts 85°
2026-05-08 02:09 4.50174 -75.83991 6857 ft 207 kts 121°
2026-05-08 02:10 4.49202 -75.82945 6468 ft 206 kts 144°
2026-05-08 02:10 4.48019 -75.82138 6117 ft 204 kts 149°
2026-05-08 02:10 4.46818 -75.81394 5789 ft 201 kts 150°
2026-05-08 02:10 4.45631 -75.80673 5646 ft 202 kts 150°
2026-05-08 02:11 4.44425 -75.79945 5624 ft 202 kts 149°
2026-05-08 02:11 4.43222 -75.79217 5618 ft 202 kts 149°
2026-05-08 02:11 4.41962 -75.78606 5886 ft 210 kts 163°
2026-05-08 02:11 4.40384 -75.78344 6362 ft 250 kts 180°
2026-05-08 02:12 4.38604 -75.78684 7063 ft 272 kts 206°
2026-05-08 02:12 4.37164 -75.79919 7962 ft 282 kts 240°
2026-05-08 02:12 4.36558 -75.81792 9021 ft 285 kts 262°
2026-05-08 02:12 4.36554 -75.83744 10339 ft 276 kts 286°
2026-05-08 02:13 4.37374 -75.85427 11687 ft 258 kts 309°
2026-05-08 02:13 4.38706 -75.86509 12921 ft 239 kts 340°
2026-05-08 02:13 4.40258 -75.86808 14080 ft 218 kts 359°
2026-05-08 02:13 4.41782 -75.86948 14680 ft 232 kts 360°
2026-05-08 02:14 4.43409 -75.86542 14767 ft 257 kts 36°
2026-05-08 02:14 4.44711 -75.85196 14661 ft 292 kts 60°
2026-05-08 02:14 4.45437 -75.83086 14011 ft 348 kts 77°
2026-05-08 02:14 4.46002 -75.80495 12196 ft 421 kts 80°
2026-05-08 02:15 4.46499 -75.77587 12741 ft 411 kts 81°
2026-05-08 02:15 4.46862 -75.75324 13086 ft 380 kts 82°